This is the latest recevied weather packets stored in our database for station/object KP4CRN. If no packets are shown the sender has not sent any weather packets the latest 10 day(s).
| Time | Temp. | Humidity | Pressure | Rain* | Wind** | Luminosity | Snow |
|---|---|---|---|---|---|---|---|
| 1777933390 | 29.44° C | 75% | 1015.3 hPa | 0 mm | - | 23 W/m² | - |
| 1777933089 | 30° C | 74% | 1015.2 hPa | 0 mm | - | 23 W/m² | - |
| 1777932785 | 30° C | 74% | 1015.3 hPa | 0 mm | - | 25 W/m² | - |
| 1777932482 | 30.56° C | 73% | 1015.2 hPa | 0 mm | - | 35 W/m² | - |
| 1777932178 | 30° C | 72% | 1015 hPa | 0 mm | - | 51 W/m² | - |
| 1777931876 | 30° C | 72% | 1014.8 hPa | 0 mm | - | 61 W/m² | - |
| 1777931572 | 30.56° C | 71% | 1014.8 hPa | 0 mm | - | 71 W/m² | - |
| 1777931268 | 30.56° C | 71% | 1014.7 hPa | 0 mm | - | 83 W/m² | - |
| 1777930965 | 31.11° C | 70% | 1014.9 hPa | 0 mm | - | 95 W/m² | - |
| 1777930661 | 31.11° C | 71% | 1014.7 hPa | 0 mm | - | 107 W/m² | - |
| 1777930352 | 30.56° C | 71% | 1014.5 hPa | 0 mm | - | 123 W/m² | - |
| 1777930049 | 30.56° C | 71% | 1014.5 hPa | 0 mm | - | 132 W/m² | - |
| 1777929745 | 31.11° C | 70% | 1014.5 hPa | 0 mm | - | 145 W/m² | - |
| 1777929443 | 30.56° C | 71% | 1014.3 hPa | 0 mm | - | 158 W/m² | - |
| 1777929133 | 31.11° C | 70% | 1014.6 hPa | 0 mm | - | 171 W/m² | - |
| 1777928831 | 31.11° C | 70% | 1014.5 hPa | 0 mm | - | 183 W/m² | - |
| 1777928528 | 31.11° C | 70% | 1014.5 hPa | 0 mm | - | 199 W/m² | - |
| 1777928225 | 31.67° C | 69% | 1014.2 hPa | 0 mm | - | 238 W/m² | - |
| 1777927922 | 31.67° C | 69% | 1014.2 hPa | 0 mm | - | 238 W/m² | - |
| 1777927621 | 31.11° C | 69% | 1014.4 hPa | 0 mm | - | 243 W/m² | - |
| 1777927319 | 31.67° C | 70% | 1014.2 hPa | 0 mm | - | 259 W/m² | - |
| 1777927017 | 31.11° C | 70% | 1014.2 hPa | 0 mm | - | 277 W/m² | - |
| 1777926714 | 31.67° C | 69% | 1014.2 hPa | 0 mm | - | 292 W/m² | - |
| 1777926409 | 31.67° C | 71% | 1014.1 hPa | 0 mm | - | 309 W/m² | - |
| 1777926106 | 31.67° C | 71% | 1014.1 hPa | 0 mm | - | 327 W/m² | - |
* Rain latest hour (hover to see other rain measurements)
** Current wind speed in m/s (hover to see current wind gust speed)